DAL2661 KMSP-KJFK

Flight info

Callsign DAL2661
Flight time 2h 4m
Altitude 41000
Route COULT7 DLL HASTE DAFLU J70 JHW Q476 WLKES PUCKY1
Aircraft A359/M-SDE2E3GHIJ3J4J5LM1ORWXY/LB1D1

Departure

Time 2026-05-08 23:37
Airport Minneapolis–Saint Paul International Airport / Wold–Chamberlain Field (KMSP)

Arrival

Time 2026-05-09 01:41
Airport John F. Kennedy International Airport (KJFK)
Time Latitude Longitude Altitude Speed Heading
2026-05-08 23:17 44.88364 -93.21697 825 ft 0 kts 96°
2026-05-08 23:27 44.88365 -93.21715 825 ft 4 kts 96°
2026-05-08 23:27 44.88368 -93.21743 826 ft 4 kts 112°
2026-05-08 23:28 44.88383 -93.21774 825 ft 4 kts 134°
2026-05-08 23:28 44.88401 -93.21798 829 ft 4 kts 162°
2026-05-08 23:28 44.88418 -93.21793 826 ft 3 kts 225°
2026-05-08 23:28 44.88437 -93.21767 823 ft 2 kts 225°
2026-05-08 23:29 44.88438 -93.21765 823 ft 0 kts 225°
2026-05-08 23:33 44.88417 -93.21795 826 ft 8 kts 225°
2026-05-08 23:33 44.88362 -93.21873 826 ft 14 kts 225°
2026-05-08 23:33 44.88277 -93.21928 830 ft 13 kts 158°
2026-05-08 23:33 44.88215 -93.21818 826 ft 16 kts 122°
2026-05-08 23:34 44.88148 -93.21664 824 ft 20 kts 122°
2026-05-08 23:34 44.88070 -93.21483 824 ft 23 kts 121°
2026-05-08 23:34 44.87982 -93.21280 827 ft 25 kts 121°
2026-05-08 23:34 44.87887 -93.21060 824 ft 27 kts 122°
2026-05-08 23:35 44.87785 -93.20825 830 ft 29 kts 121°
2026-05-08 23:35 44.87677 -93.20573 825 ft 30 kts 121°
2026-05-08 23:35 44.87580 -93.20350 822 ft 23 kts 121°
2026-05-08 23:35 44.87501 -93.20167 825 ft 21 kts 121°
2026-05-08 23:36 44.87416 -93.20093 827 ft 13 kts 204°
2026-05-08 23:36 44.87380 -93.20187 832 ft 10 kts 290°
2026-05-08 23:36 44.87416 -93.20268 829 ft 12 kts 301°
2026-05-08 23:36 44.87531 -93.20533 825 ft 65 kts 301°
2026-05-08 23:37 44.87891 -93.21367 823 ft 132 kts 301°
2026-05-08 23:37 44.88429 -93.22633 1221 ft 156 kts 301°
2026-05-08 23:37 44.89041 -93.23970 1868 ft 172 kts 306°
2026-05-08 23:37 44.89932 -93.25281 2424 ft 197 kts 322°
2026-05-08 23:38 44.91228 -93.26095 2883 ft 213 kts 340°
2026-05-08 23:38 44.92723 -93.26663 3314 ft 231 kts 342°
2026-05-08 23:38 44.94326 -93.27247 3777 ft 246 kts 346°
2026-05-08 23:38 44.96035 -93.27062 4589 ft 247 kts
2026-05-08 23:39 44.97707 -93.26702 5312 ft 247 kts
2026-05-08 23:39 44.99432 -93.26447 5935 ft 253 kts
2026-05-08 23:39 45.01221 -93.26236 6444 ft 263 kts
2026-05-08 23:39 45.03070 -93.26010 6861 ft 270 kts
2026-05-08 23:40 45.04906 -93.25348 6976 ft 277 kts 18°
2026-05-08 23:40 45.06509 -93.23785 6981 ft 288 kts 43°
2026-05-08 23:40 45.07476 -93.21280 6996 ft 297 kts 73°
2026-05-08 23:40 45.07444 -93.18407 6997 ft 300 kts 106°
2026-05-08 23:41 45.06462 -93.15828 6978 ft 299 kts 128°
2026-05-08 23:41 45.05176 -93.13511 6977 ft 300 kts 131°
2026-05-08 23:41 45.03804 -93.11283 6978 ft 301 kts 134°
2026-05-08 23:41 45.02355 -93.09152 6995 ft 300 kts 137°
2026-05-08 23:42 45.00834 -93.07126 6995 ft 301 kts 141°
2026-05-08 23:42 44.99246 -93.05214 7014 ft 299 kts 144°
2026-05-08 23:42 44.98166 -93.04014 7000 ft 298 kts 146°
2026-05-08 23:42 44.96509 -93.02254 6990 ft 300 kts 142°
2026-05-08 23:43 44.94683 -92.99314 6989 ft 301 kts 128°
2026-05-08 23:43 44.93467 -92.96905 7007 ft 301 kts 127°
2026-05-08 23:43 44.92274 -92.94475 6993 ft 301 kts 126°
2026-05-08 23:43 44.91088 -92.92042 6977 ft 301 kts 126°
2026-05-08 23:44 44.90307 -92.90435 6995 ft 301 kts 126°
2026-05-08 23:44 44.89126 -92.87999 6996 ft 301 kts 126°
2026-05-08 23:44 44.87548 -92.84744 6985 ft 301 kts 126°
2026-05-08 23:44 44.86765 -92.83131 6979 ft 301 kts 126°
2026-05-08 23:45 44.85586 -92.80700 7004 ft 300 kts 126°
2026-05-08 23:45 44.84024 -92.77483 7000 ft 301 kts 126°
2026-05-08 23:45 44.83225 -92.75837 7003 ft 301 kts 126°
2026-05-08 23:45 44.82042 -92.73401 6997 ft 301 kts 126°
2026-05-08 23:46 44.80871 -92.70996 6991 ft 302 kts 126°
2026-05-08 23:46 44.79683 -92.68558 6991 ft 302 kts 126°
2026-05-08 23:46 44.78498 -92.66125 6996 ft 302 kts 126°
2026-05-08 23:46 44.77308 -92.63685 6994 ft 302 kts 126°
2026-05-08 23:47 44.76116 -92.61253 6994 ft 302 kts 126°
2026-05-08 23:47 44.74928 -92.58823 6995 ft 302 kts 126°
2026-05-08 23:47 44.73741 -92.56392 6990 ft 301 kts 126°
2026-05-08 23:47 44.72551 -92.53957 6988 ft 302 kts 126°
2026-05-08 23:48 44.71359 -92.51523 7059 ft 302 kts 126°
2026-05-08 23:48 44.70179 -92.49115 7494 ft 305 kts 127°
2026-05-08 23:48 44.68955 -92.46671 8341 ft 306 kts 128°
2026-05-08 23:48 44.67706 -92.44247 9125 ft 307 kts 129°
2026-05-08 23:49 44.66446 -92.41805 9862 ft 311 kts 129°
2026-05-08 23:49 44.65160 -92.39313 10384 ft 321 kts 129°
2026-05-08 23:49 44.63816 -92.36710 10687 ft 338 kts 129°
2026-05-08 23:49 44.62401 -92.33963 11005 ft 355 kts 129°
2026-05-08 23:50 44.60928 -92.31101 11439 ft 367 kts 129°
2026-05-08 23:50 44.59443 -92.28211 12018 ft 373 kts 129°
2026-05-08 23:50 44.57911 -92.25232 12597 ft 379 kts 129°
2026-05-08 23:50 44.56360 -92.22221 13225 ft 384 kts 129°
2026-05-08 23:51 44.54785 -92.19172 13814 ft 389 kts 129°
2026-05-08 23:51 44.53190 -92.16088 14389 ft 392 kts 129°
2026-05-08 23:51 44.51583 -92.12972 14944 ft 396 kts 128°
2026-05-08 23:51 44.49954 -92.09818 15491 ft 402 kts 128°
2026-05-08 23:52 44.48303 -92.06633 16026 ft 406 kts 128°
2026-05-08 23:52 44.46635 -92.03404 16591 ft 410 kts 127°
2026-05-08 23:52 44.44975 -92.00209 17179 ft 414 kts 127°
2026-05-08 23:52 44.43266 -91.96928 17756 ft 420 kts 127°
2026-05-08 23:53 44.41540 -91.93618 18343 ft 423 kts 127°
2026-05-08 23:53 44.39792 -91.90281 18800 ft 428 kts 127°
2026-05-08 23:53 44.38043 -91.86902 19304 ft 431 kts 127°
2026-05-08 23:53 44.36432 -91.83350 19855 ft 434 kts 120°
2026-05-08 23:54 44.34990 -91.79628 20358 ft 437 kts 118°
2026-05-08 23:54 44.33569 -91.75865 20883 ft 441 kts 118°
2026-05-08 23:54 44.32133 -91.72065 21403 ft 444 kts 118°
2026-05-08 23:55 44.29236 -91.64439 22415 ft 451 kts 118°
2026-05-08 23:55 44.27758 -91.60562 22945 ft 454 kts 118°
2026-05-08 23:55 44.26267 -91.56657 23423 ft 458 kts 118°
2026-05-08 23:55 44.24768 -91.52738 23900 ft 460 kts 118°
2026-05-08 23:56 44.23257 -91.48791 24369 ft 462 kts 118°
2026-05-08 23:56 44.21735 -91.44827 24829 ft 465 kts 118°
2026-05-08 23:56 44.20205 -91.40849 25306 ft 466 kts 119°
2026-05-08 23:56 44.18669 -91.36857 25808 ft 468 kts 119°
2026-05-08 23:57 44.17145 -91.32903 26281 ft 471 kts 119°
2026-05-08 23:57 44.15592 -91.28875 26812 ft 473 kts 119°
2026-05-08 23:57 44.14030 -91.24833 27345 ft 475 kts 119°
2026-05-08 23:57 44.12462 -91.20782 27850 ft 478 kts 119°
2026-05-08 23:58 44.10881 -91.16701 28357 ft 480 kts 119°
2026-05-08 23:58 44.09287 -91.12592 28836 ft 484 kts 120°
2026-05-08 23:58 44.07683 -91.08467 29330 ft 486 kts 120°
2026-05-08 23:58 44.06070 -91.04322 29781 ft 489 kts 120°
2026-05-08 23:59 44.04469 -91.00217 30146 ft 491 kts 120°
2026-05-08 23:59 44.02835 -90.96034 30489 ft 495 kts 120°
2026-05-08 23:59 44.01188 -90.91819 30773 ft 498 kts 121°
2026-05-08 23:59 43.99526 -90.87574 31101 ft 501 kts 121°
2026-05-09 00:00 43.97853 -90.83308 31417 ft 504 kts 120°
2026-05-09 00:00 43.96175 -90.79029 31761 ft 507 kts 121°
2026-05-09 00:00 43.94480 -90.74719 32000 ft 511 kts 121°
2026-05-09 00:00 43.92763 -90.70365 32193 ft 517 kts 121°
2026-05-09 00:01 43.91032 -90.65982 32496 ft 519 kts 121°
2026-05-09 00:01 43.89295 -90.61586 32824 ft 521 kts 121°
2026-05-09 00:01 43.87548 -90.57172 33107 ft 524 kts 121°
2026-05-09 00:01 43.85790 -90.52734 33383 ft 526 kts 121°
2026-05-09 00:02 43.84049 -90.48349 33650 ft 529 kts 121°
2026-05-09 00:02 43.82272 -90.43880 33852 ft 531 kts 121°
2026-05-09 00:02 43.80488 -90.39403 34106 ft 532 kts 121°
2026-05-09 00:02 43.78700 -90.34920 34411 ft 531 kts 122°
2026-05-09 00:03 43.76915 -90.30453 34750 ft 530 kts 122°
2026-05-09 00:03 43.75129 -90.25990 35023 ft 530 kts 122°
2026-05-09 00:03 43.73340 -90.21527 35299 ft 531 kts 122°
2026-05-09 00:03 43.71548 -90.17062 35578 ft 531 kts 122°
2026-05-09 00:04 43.69778 -90.12661 35849 ft 531 kts 122°
2026-05-09 00:04 43.67984 -90.08205 36122 ft 531 kts 122°
2026-05-09 00:04 43.66186 -90.03747 36400 ft 531 kts 122°
2026-05-09 00:04 43.64386 -89.99290 36681 ft 531 kts 122°
2026-05-09 00:05 43.62585 -89.94839 36847 ft 533 kts 122°
2026-05-09 00:05 43.58940 -89.85853 37192 ft 537 kts 122°
2026-05-09 00:05 43.57115 -89.81360 37482 ft 536 kts 122°
2026-05-09 00:06 43.55447 -89.76753 37692 ft 539 kts 114°
2026-05-09 00:06 43.54279 -89.71848 37949 ft 540 kts 106°
2026-05-09 00:06 43.53340 -89.66835 38174 ft 540 kts 104°
2026-05-09 00:06 43.52495 -89.61861 38398 ft 540 kts 103°
2026-05-09 00:07 43.51671 -89.56813 38588 ft 540 kts 103°
2026-05-09 00:07 43.50847 -89.51762 38745 ft 540 kts 103°
2026-05-09 00:07 43.50015 -89.46729 38918 ft 540 kts 103°
2026-05-09 00:07 43.49167 -89.41690 39078 ft 540 kts 104°
2026-05-09 00:08 43.48307 -89.36652 39245 ft 540 kts 104°
2026-05-09 00:08 43.47442 -89.31633 39401 ft 540 kts 104°
2026-05-09 00:08 43.46569 -89.26602 39563 ft 539 kts 104°
2026-05-09 00:08 43.45696 -89.21592 39735 ft 539 kts 104°
2026-05-09 00:09 43.44819 -89.16570 39896 ft 539 kts 104°
2026-05-09 00:09 43.43953 -89.11626 40039 ft 539 kts 104°
2026-05-09 00:09 43.43075 -89.06624 40193 ft 538 kts 104°
2026-05-09 00:10 43.41311 -88.96611 40393 ft 539 kts 104°
2026-05-09 00:10 43.40424 -88.91597 40517 ft 539 kts 104°
2026-05-09 00:10 43.39535 -88.86582 40656 ft 539 kts 104°
2026-05-09 00:11 43.37749 -88.76549 40751 ft 543 kts 105°
2026-05-09 00:11 43.35936 -88.66428 40748 ft 546 kts 105°
2026-05-09 00:12 43.34125 -88.56366 40750 ft 546 kts 105°
2026-05-09 00:12 43.32297 -88.46263 40740 ft 545 kts 105°
2026-05-09 00:13 43.30458 -88.36158 40741 ft 545 kts 105°
2026-05-09 00:13 43.28611 -88.26068 40748 ft 545 kts 105°
2026-05-09 00:14 43.26756 -88.15984 40741 ft 545 kts 105°
2026-05-09 00:14 43.24891 -88.05902 40781 ft 545 kts 105°
2026-05-09 00:15 43.23030 -87.95894 40781 ft 546 kts 105°
2026-05-09 00:15 43.21145 -87.85815 40783 ft 546 kts 105°
2026-05-09 00:16 43.19250 -87.75732 40779 ft 547 kts 106°
2026-05-09 00:16 43.17343 -87.65636 40790 ft 548 kts 106°
2026-05-09 00:17 43.15421 -87.55523 40799 ft 550 kts 106°
2026-05-09 00:17 43.13501 -87.45464 40805 ft 550 kts 106°
2026-05-09 00:18 43.11558 -87.35340 40811 ft 550 kts 106°
2026-05-09 00:18 43.09605 -87.25219 40795 ft 551 kts 106°
2026-05-09 00:19 43.07640 -87.15090 40815 ft 551 kts 106°
2026-05-09 00:19 43.05666 -87.04965 40824 ft 551 kts 107°
2026-05-09 00:20 43.03683 -86.94846 40824 ft 551 kts 107°
2026-05-09 00:20 43.01705 -86.84804 40829 ft 552 kts 107°
2026-05-09 00:21 42.99701 -86.74679 40830 ft 552 kts 107°
2026-05-09 00:21 42.97687 -86.64559 40829 ft 552 kts 107°
2026-05-09 00:22 42.95676 -86.54506 40830 ft 553 kts 107°
2026-05-09 00:22 42.93642 -86.44385 40834 ft 554 kts 107°
2026-05-09 00:23 42.91595 -86.34255 40838 ft 554 kts 107°
2026-05-09 00:23 42.89540 -86.24131 40829 ft 554 kts 107°
2026-05-09 00:24 42.87476 -86.14017 40825 ft 554 kts 107°
2026-05-09 00:24 42.85403 -86.03910 40824 ft 553 kts 107°
2026-05-09 00:25 42.83336 -85.93878 40826 ft 553 kts 108°
2026-05-09 00:25 42.81248 -85.83796 40829 ft 553 kts 108°
2026-05-09 00:26 42.79147 -85.73704 40835 ft 553 kts 108°
2026-05-09 00:26 42.77042 -85.63636 40833 ft 553 kts 108°
2026-05-09 00:27 42.74926 -85.53569 40831 ft 553 kts 108°
2026-05-09 00:27 42.72816 -85.43575 40834 ft 553 kts 108°
2026-05-09 00:28 42.70682 -85.33518 40834 ft 554 kts 108°
2026-05-09 00:28 42.68536 -85.23455 40839 ft 554 kts 108°
2026-05-09 00:29 42.66759 -85.13256 40832 ft 556 kts 101°
2026-05-09 00:29 42.65559 -85.02884 40827 ft 556 kts 99°
2026-05-09 00:30 42.64450 -84.92538 40823 ft 557 kts 99°
2026-05-09 00:30 42.63327 -84.82132 40822 ft 557 kts 99°
2026-05-09 00:31 42.62179 -84.71723 40824 ft 557 kts 99°
2026-05-09 00:31 42.61014 -84.61318 40818 ft 558 kts 99°
2026-05-09 00:32 42.59846 -84.50973 40815 ft 558 kts 100°
2026-05-09 00:32 42.58661 -84.40569 40813 ft 558 kts 100°
2026-05-09 00:33 42.57467 -84.30158 40819 ft 558 kts 100°
2026-05-09 00:33 42.56264 -84.19762 40818 ft 558 kts 100°
2026-05-09 00:34 42.55052 -84.09364 40815 ft 558 kts 100°
2026-05-09 00:34 42.53837 -83.99032 40814 ft 558 kts 100°
2026-05-09 00:35 42.52605 -83.88639 40814 ft 558 kts 100°
2026-05-09 00:35 42.51363 -83.78243 40816 ft 559 kts 100°
2026-05-09 00:36 42.50113 -83.67866 40817 ft 559 kts 100°
2026-05-09 00:36 42.48852 -83.57471 40823 ft 559 kts 101°
2026-05-09 00:37 42.47589 -83.47150 40820 ft 559 kts 101°
2026-05-09 00:37 42.46308 -83.36754 40816 ft 560 kts 101°
2026-05-09 00:38 42.45024 -83.26424 40815 ft 560 kts 101°
2026-05-09 00:38 42.43723 -83.16030 40814 ft 560 kts 101°
2026-05-09 00:39 42.42422 -83.05712 40813 ft 560 kts 101°
2026-05-09 00:39 42.41116 -82.95437 40813 ft 560 kts 101°
2026-05-09 00:40 42.39799 -82.85153 40815 ft 560 kts 101°
2026-05-09 00:40 42.38614 -82.75961 40829 ft 560 kts 101°
2026-05-09 00:41 42.37494 -82.60242 40837 ft 564 kts 94°
2026-05-09 00:41 42.37080 -82.49649 40845 ft 564 kts 93°
2026-05-09 00:42 42.36680 -82.39063 40849 ft 563 kts 93°
2026-05-09 00:42 42.36260 -82.28498 40851 ft 563 kts 93°
2026-05-09 00:43 42.35824 -82.17992 40851 ft 563 kts 94°
2026-05-09 00:43 42.35373 -82.07427 40851 ft 563 kts 94°
2026-05-09 00:44 42.34912 -81.96855 40851 ft 563 kts 94°
2026-05-09 00:44 42.34441 -81.86279 40856 ft 563 kts 94°
2026-05-09 00:45 42.33962 -81.75714 40865 ft 563 kts 94°
2026-05-09 00:45 42.33476 -81.65218 40877 ft 563 kts 94°
2026-05-09 00:46 42.32980 -81.54643 40881 ft 564 kts 94°
2026-05-09 00:46 42.32476 -81.44076 40886 ft 564 kts 94°
2026-05-09 00:47 42.31958 -81.33494 40892 ft 564 kts 94°
2026-05-09 00:47 42.31432 -81.22916 40892 ft 564 kts 94°
2026-05-09 00:48 42.30899 -81.12398 40897 ft 565 kts 94°
2026-05-09 00:48 42.30354 -81.01809 40903 ft 565 kts 94°
2026-05-09 00:49 42.29799 -80.91218 40900 ft 565 kts 94°
2026-05-09 00:49 42.29233 -80.80624 40909 ft 566 kts 95°
2026-05-09 00:50 42.28662 -80.70035 40905 ft 566 kts 95°
2026-05-09 00:50 42.28074 -80.59434 40905 ft 566 kts 95°
2026-05-09 00:51 42.27476 -80.48906 40906 ft 566 kts 95°
2026-05-09 00:51 42.26865 -80.38296 40908 ft 567 kts 95°
2026-05-09 00:52 42.26246 -80.27684 40911 ft 567 kts 95°
2026-05-09 00:52 42.25618 -80.17078 40911 ft 567 kts 95°
2026-05-09 00:53 42.24981 -80.06481 40914 ft 567 kts 95°
2026-05-09 00:53 42.24336 -79.95933 40916 ft 567 kts 95°
2026-05-09 00:54 42.23678 -79.85322 40925 ft 567 kts 95°
2026-05-09 00:54 42.23010 -79.74723 40924 ft 567 kts 95°
2026-05-09 00:55 42.22332 -79.64116 40929 ft 567 kts 95°
2026-05-09 00:55 42.21645 -79.53515 40939 ft 567 kts 95°
2026-05-09 00:56 42.20947 -79.42904 40935 ft 567 kts 95°
2026-05-09 00:56 42.20244 -79.32372 40934 ft 568 kts 95°
2026-05-09 00:57 42.19528 -79.21777 40936 ft 568 kts 95°
2026-05-09 00:57 42.18469 -79.11260 40918 ft 566 kts 107°
2026-05-09 00:58 42.16190 -79.01130 40921 ft 565 kts 110°
2026-05-09 00:58 42.13692 -78.91168 40929 ft 565 kts 111°
2026-05-09 00:59 42.11139 -78.81160 40934 ft 565 kts 111°
2026-05-09 00:59 42.08597 -78.71148 40930 ft 565 kts 111°
2026-05-09 01:00 42.06331 -78.62206 40930 ft 565 kts 111°
2026-05-09 01:00 42.03788 -78.52198 40915 ft 565 kts 111°
2026-05-09 01:01 42.01235 -78.42185 40932 ft 566 kts 111°
2026-05-09 01:01 41.98674 -78.32186 40936 ft 566 kts 111°
2026-05-09 01:02 41.96117 -78.22252 40935 ft 566 kts 111°
2026-05-09 01:02 41.93532 -78.12255 40934 ft 566 kts 111°
2026-05-09 01:03 41.90942 -78.02271 40934 ft 566 kts 111°
2026-05-09 01:03 41.88342 -77.92295 40934 ft 566 kts 111°
2026-05-09 01:04 41.85737 -77.82333 40943 ft 566 kts 111°
2026-05-09 01:04 41.83142 -77.72451 40942 ft 566 kts 112°
2026-05-09 01:05 41.80513 -77.62510 40942 ft 566 kts 112°
2026-05-09 01:06 41.76563 -77.47621 40939 ft 565 kts 112°
2026-05-09 01:06 41.73924 -77.37714 40791 ft 565 kts 112°
2026-05-09 01:06 41.72603 -77.32769 40561 ft 564 kts 112°
2026-05-09 01:07 41.71298 -77.27894 40326 ft 564 kts 112°
2026-05-09 01:07 41.69974 -77.22959 40103 ft 565 kts 112°
2026-05-09 01:07 41.68643 -77.18009 39824 ft 566 kts 112°
2026-05-09 01:07 41.67305 -77.13047 39604 ft 568 kts 113°
2026-05-09 01:08 41.65959 -77.08065 39368 ft 570 kts 113°
2026-05-09 01:08 41.64607 -77.03072 39147 ft 572 kts 113°
2026-05-09 01:08 41.63251 -76.98071 38927 ft 573 kts 113°
2026-05-09 01:08 41.61890 -76.93064 38701 ft 574 kts 113°
2026-05-09 01:09 41.60525 -76.88051 38460 ft 574 kts 113°
2026-05-09 01:09 41.59173 -76.83096 38179 ft 576 kts 113°
2026-05-09 01:09 41.57796 -76.78060 37908 ft 578 kts 113°
2026-05-09 01:09 41.56417 -76.73026 37635 ft 578 kts 113°
2026-05-09 01:10 41.55033 -76.67985 37371 ft 578 kts 113°
2026-05-09 01:10 41.53648 -76.62946 37125 ft 578 kts 113°
2026-05-09 01:10 41.52262 -76.57911 36863 ft 578 kts 113°
2026-05-09 01:10 41.50879 -76.52891 36423 ft 574 kts 114°
2026-05-09 01:11 41.49497 -76.47898 35717 ft 573 kts 114°
2026-05-09 01:11 41.48111 -76.42901 34892 ft 575 kts 114°
2026-05-09 01:11 41.46724 -76.37908 34171 ft 576 kts 114°
2026-05-09 01:11 41.45332 -76.32907 33370 ft 575 kts 114°
2026-05-09 01:12 41.43939 -76.27916 32615 ft 573 kts 114°
2026-05-09 01:12 41.42570 -76.23014 31933 ft 570 kts 113°
2026-05-09 01:12 41.41189 -76.18078 31308 ft 567 kts 113°
2026-05-09 01:12 41.39815 -76.13176 30732 ft 563 kts 112°
2026-05-09 01:13 41.38452 -76.08323 30248 ft 556 kts 112°
2026-05-09 01:13 41.37099 -76.03515 29640 ft 552 kts 112°
2026-05-09 01:13 41.35756 -75.98750 29071 ft 547 kts 112°
2026-05-09 01:13 41.34425 -75.94035 28512 ft 541 kts 112°
2026-05-09 01:14 41.33107 -75.89377 27934 ft 536 kts 112°
2026-05-09 01:14 41.31797 -75.84756 27320 ft 532 kts 112°
2026-05-09 01:14 41.30492 -75.80163 26663 ft 529 kts 112°
2026-05-09 01:14 41.29213 -75.75667 26210 ft 523 kts 112°
2026-05-09 01:15 41.27933 -75.71173 25744 ft 517 kts 112°
2026-05-09 01:15 41.26651 -75.66726 25210 ft 513 kts 114°
2026-05-09 01:15 41.25230 -75.62408 24695 ft 507 kts 117°
2026-05-09 01:15 41.23769 -75.58160 24190 ft 503 kts 117°
2026-05-09 01:16 41.22329 -75.53948 23657 ft 499 kts 116°
2026-05-09 01:16 41.20907 -75.49761 23168 ft 494 kts 116°
2026-05-09 01:16 41.19506 -75.45620 22972 ft 492 kts 116°
2026-05-09 01:17 41.16725 -75.37380 22962 ft 491 kts 116°
2026-05-09 01:17 41.15327 -75.33248 22961 ft 491 kts 116°
2026-05-09 01:17 41.13927 -75.29118 22961 ft 491 kts 116°
2026-05-09 01:17 41.12531 -75.24984 22964 ft 491 kts 116°
2026-05-09 01:18 41.11134 -75.20847 22964 ft 491 kts 116°
2026-05-09 01:18 41.09742 -75.16732 22817 ft 486 kts 116°
2026-05-09 01:18 41.08370 -75.12681 22509 ft 475 kts 116°
2026-05-09 01:18 41.07031 -75.08734 22254 ft 464 kts 116°
2026-05-09 01:19 41.05728 -75.04889 22041 ft 452 kts 116°
2026-05-09 01:19 41.04468 -75.01191 21804 ft 441 kts 116°
2026-05-09 01:19 41.03221 -74.97537 21611 ft 430 kts 116°
2026-05-09 01:19 41.02002 -74.93976 21406 ft 419 kts 116°
2026-05-09 01:20 41.00811 -74.90494 21111 ft 412 kts 116°
2026-05-09 01:20 40.99743 -74.87004 20746 ft 408 kts 107°
2026-05-09 01:20 40.99145 -74.83356 20395 ft 403 kts 98°
2026-05-09 01:20 40.98719 -74.79706 20027 ft 399 kts 97°
2026-05-09 01:21 40.98311 -74.76102 19656 ft 395 kts 97°
2026-05-09 01:21 40.97902 -74.72520 19303 ft 391 kts 98°
2026-05-09 01:21 40.97498 -74.69031 19031 ft 387 kts 98°
2026-05-09 01:21 40.97088 -74.65514 18971 ft 387 kts 98°
2026-05-09 01:22 40.96674 -74.61987 18967 ft 387 kts 98°
2026-05-09 01:22 40.96260 -74.58476 18967 ft 387 kts 98°
2026-05-09 01:22 40.95844 -74.54962 18969 ft 387 kts 98°
2026-05-09 01:22 40.95428 -74.51450 18968 ft 386 kts 98°
2026-05-09 01:23 40.95010 -74.47940 18973 ft 387 kts 98°
2026-05-09 01:23 40.94589 -74.44428 18972 ft 387 kts 98°
2026-05-09 01:23 40.94169 -74.40916 18972 ft 387 kts 98°
2026-05-09 01:23 40.93747 -74.37404 18971 ft 387 kts 98°
2026-05-09 01:24 40.93330 -74.33940 18973 ft 386 kts 98°
2026-05-09 01:24 40.92907 -74.30438 18970 ft 385 kts 98°
2026-05-09 01:24 40.92485 -74.26947 18972 ft 385 kts 98°
2026-05-09 01:24 40.92061 -74.23450 18969 ft 385 kts 98°
2026-05-09 01:25 40.91636 -74.19958 18968 ft 385 kts 98°
2026-05-09 01:25 40.91211 -74.16477 18902 ft 382 kts 98°
2026-05-09 01:25 40.90714 -74.13042 18504 ft 380 kts 106°
2026-05-09 01:25 40.89597 -74.09921 18085 ft 373 kts 129°
2026-05-09 01:26 40.87798 -74.07553 17633 ft 360 kts 152°
2026-05-09 01:26 40.85595 -74.06208 17157 ft 342 kts 173°
2026-05-09 01:26 40.83338 -74.05518 16732 ft 335 kts 177°
2026-05-09 01:26 40.81054 -74.04929 16312 ft 332 kts 177°
2026-05-09 01:27 40.78798 -74.04361 16025 ft 329 kts 177°
2026-05-09 01:27 40.76539 -74.03796 15995 ft 330 kts 177°
2026-05-09 01:27 40.74289 -74.03234 15994 ft 330 kts 177°
2026-05-09 01:27 40.72038 -74.02671 15995 ft 329 kts 177°
2026-05-09 01:28 40.69786 -74.02108 15995 ft 329 kts 177°
2026-05-09 01:28 40.67534 -74.01545 15996 ft 329 kts 177°
2026-05-09 01:28 40.65289 -74.00948 15960 ft 330 kts 177°
2026-05-09 01:28 40.63045 -74.00373 15603 ft 327 kts 177°
2026-05-09 01:29 40.60814 -73.99813 15075 ft 329 kts 177°
2026-05-09 01:29 40.58605 -73.99266 14670 ft 326 kts 177°
2026-05-09 01:29 40.56384 -73.98715 14282 ft 324 kts 177°
2026-05-09 01:29 40.54176 -73.98170 13886 ft 321 kts 177°
2026-05-09 01:30 40.51986 -73.97633 13451 ft 319 kts 178°
2026-05-09 01:30 40.49816 -73.97095 13058 ft 315 kts 178°
2026-05-09 01:30 40.47684 -73.96559 12661 ft 311 kts 177°
2026-05-09 01:30 40.45588 -73.95795 12211 ft 319 kts 162°
2026-05-09 01:31 40.43779 -73.94057 11830 ft 330 kts 138°
2026-05-09 01:31 40.42512 -73.91527 11398 ft 334 kts 120°
2026-05-09 01:31 40.41525 -73.88805 10952 ft 335 kts 118°
2026-05-09 01:31 40.40580 -73.86028 10548 ft 332 kts 117°
2026-05-09 01:32 40.39660 -73.83262 10158 ft 330 kts 117°
2026-05-09 01:32 40.38808 -73.80656 9770 ft 327 kts 117°
2026-05-09 01:32 40.37921 -73.77922 9360 ft 324 kts 117°
2026-05-09 01:32 40.37042 -73.75219 8955 ft 320 kts 117°
2026-05-09 01:33 40.36173 -73.72550 8552 ft 317 kts 117°
2026-05-09 01:33 40.35626 -73.69760 8114 ft 319 kts 94°
2026-05-09 01:33 40.35929 -73.66924 7705 ft 314 kts 68°
2026-05-09 01:33 40.37041 -73.64529 7315 ft 303 kts 41°
2026-05-09 01:34 40.38636 -73.62817 6984 ft 292 kts 29°
2026-05-09 01:34 40.40290 -73.61348 6523 ft 292 kts 27°
2026-05-09 01:34 40.41981 -73.59896 6099 ft 290 kts 27°
2026-05-09 01:34 40.43665 -73.58473 5766 ft 283 kts 27°
2026-05-09 01:35 40.45293 -73.57107 5593 ft 272 kts 27°
2026-05-09 01:35 40.46859 -73.55795 5434 ft 262 kts 27°
2026-05-09 01:35 40.48363 -73.54533 5284 ft 252 kts 27°
2026-05-09 01:35 40.49819 -73.53342 5120 ft 240 kts 23°
2026-05-09 01:36 40.50831 -73.52876 5004 ft 227 kts
2026-05-09 01:36 40.52305 -73.53090 4861 ft 206 kts 334°
2026-05-09 01:36 40.53969 -73.54096 4557 ft 196 kts 326°
2026-05-09 01:36 40.54980 -73.55302 4028 ft 200 kts 303°
2026-05-09 01:37 40.55741 -73.56886 3483 ft 211 kts 298°
2026-05-09 01:37 40.56487 -73.58570 3071 ft 214 kts 300°
2026-05-09 01:37 40.57255 -73.60239 2772 ft 212 kts 300°
2026-05-09 01:37 40.58004 -73.61883 2491 ft 205 kts 300°
2026-05-09 01:38 40.58477 -73.62929 2326 ft 196 kts 300°
2026-05-09 01:38 40.59138 -73.64387 2072 ft 176 kts 300°
2026-05-09 01:38 40.59735 -73.65700 1849 ft 160 kts 299°
2026-05-09 01:38 40.60288 -73.66921 1591 ft 151 kts 300°
2026-05-09 01:39 40.60985 -73.68455 1218 ft 145 kts 300°
2026-05-09 01:39 40.61502 -73.69583 1031 ft 140 kts 300°
2026-05-09 01:39 40.61989 -73.70658 834 ft 134 kts 300°
2026-05-09 01:39 40.62311 -73.71370 745 ft 134 kts 300°
2026-05-09 01:40 40.62799 -73.72431 638 ft 137 kts 300°
2026-05-09 01:40 40.63275 -73.73499 522 ft 138 kts 298°
2026-05-09 01:40 40.63766 -73.74588 331 ft 137 kts 300°
2026-05-09 01:40 40.64255 -73.75670 161 ft 137 kts 300°
2026-05-09 01:41 40.64746 -73.76754 32 ft 135 kts 298°
2026-05-09 01:41 40.65181 -73.77711 28 ft 96 kts 301°
2026-05-09 01:41 40.65387 -73.78165 29 ft 31 kts 301°
2026-05-09 01:41 40.65417 -73.78312 29 ft 9 kts 257°
2026-05-09 01:42 40.65397 -73.78366 30 ft 8 kts 239°
2026-05-09 01:42 40.65372 -73.78421 31 ft 12 kts 239°
2026-05-09 01:42 40.65315 -73.78494 30 ft 4 kts 172°
2026-05-09 01:42 40.65284 -73.78458 30 ft 8 kts 124°
2026-05-09 01:43 40.65262 -73.78380 30 ft 10 kts 110°
2026-05-09 01:43 40.65229 -73.78297 32 ft 12 kts 120°
2026-05-09 01:43 40.65180 -73.78189 30 ft 16 kts 121°
2026-05-09 01:43 40.65114 -73.78044 29 ft 20 kts 120°
2026-05-09 01:44 40.65039 -73.77880 27 ft 22 kts 120°
2026-05-09 01:44 40.64960 -73.77705 27 ft 20 kts 121°
2026-05-09 01:44 40.64885 -73.77538 27 ft 23 kts 121°
2026-05-09 01:44 40.64815 -73.77385 29 ft 13 kts 121°
2026-05-09 01:45 40.64767 -73.77281 29 ft 15 kts 121°
2026-05-09 01:45 40.64710 -73.77158 29 ft 16 kts 127°
2026-05-09 01:45 40.64608 -73.77092 28 ft 18 kts 175°
2026-05-09 01:45 40.64482 -73.77092 28 ft 17 kts 183°
2026-05-09 01:46 40.64374 -73.77150 29 ft 18 kts 208°
2026-05-09 01:46 40.64263 -73.77236 28 ft 17 kts 211°
2026-05-09 01:46 40.64161 -73.77316 31 ft 17 kts 210°
2026-05-09 01:46 40.64051 -73.77402 28 ft 20 kts 210°
2026-05-09 01:47 40.63935 -73.77492 28 ft 20 kts 211°
2026-05-09 01:47 40.63827 -73.77576 29 ft 14 kts 210°
2026-05-09 01:47 40.63737 -73.77647 27 ft 16 kts 211°
2026-05-09 01:47 40.63629 -73.77731 31 ft 20 kts 210°
2026-05-09 01:48 40.63560 -73.77800 27 ft 8 kts 248°
2026-05-09 01:48 40.63579 -73.77860 29 ft 8 kts 314°
2026-05-09 01:48 40.63639 -73.77891 29 ft 11 kts 351°
2026-05-09 01:48 40.63727 -73.77907 29 ft 11 kts 353°
2026-05-09 01:49 40.63782 -73.77931 29 ft 6 kts 306°
2026-05-09 01:49 40.63786 -73.77986 29 ft 5 kts 263°
2026-05-09 01:49 40.63783 -73.78015 29 ft 1 kts 262°
2026-05-09 01:49 40.63782 -73.78028 29 ft 1 kts 262°